﻿id,post_author,post_date,post_date_gmt,post_content,post_title,post_excerpt,post_status,comment_status,ping_status,post_password,post_name,to_ping,pinged,post_modified,post_modified_gmt,post_content_filtered,post_parent,guid,menu_order,post_type,post_mime_type,comment_count,filter,permalink,post_thumbnail,arquivo_lici,categoria_lici,data-da-postagem_lici,data-da-realizacao-lici,modalidade_lici,situacao-lici
25806,2,"2021-03-24 10:40:41","2021-03-24 13:40:41",,"LICITANET - TERMO DE ADJUDICAÇÃO  N° 05 2021",,publish,closed,closed,,licitanet-termo-de-adjudicacao-n-05-2021,,,"2021-03-24 10:40:41","2021-03-24 13:40:41",,0,https://transparencia.prefeiturapiumhi.mg.gov.br/a/?post_type=licitacoes&#038;p=25806,0,licitacoes,,0,raw,https://transparencia.prefeiturapiumhi.mg.gov.br/licitacoes/licitanet-termo-de-adjudicacao-n-05-2021/,,25808,"TERMOS DE ADJUDICAÇÃO",,,,
25809,2,"2021-03-24 10:41:12","2021-03-24 13:41:12",,"LICITANET - TERMO DE ADJUDICAÇÃO 4",,publish,closed,closed,,licitanet-termo-de-adjudicacao-4,,,"2021-03-24 10:41:12","2021-03-24 13:41:12",,0,https://transparencia.prefeiturapiumhi.mg.gov.br/a/?post_type=licitacoes&#038;p=25809,0,licitacoes,,0,raw,https://transparencia.prefeiturapiumhi.mg.gov.br/licitacoes/licitanet-termo-de-adjudicacao-4/,,25810,"TERMOS DE ADJUDICAÇÃO",,,,
25811,2,"2021-03-24 10:42:49","2021-03-24 13:42:49",,"LICITANET - TERMO DE ADJUDICAÇÃO N° 07 2021",,publish,closed,closed,,licitanet-termo-de-adjudicacao-n-07-2021,,,"2021-03-24 10:42:49","2021-03-24 13:42:49",,0,https://transparencia.prefeiturapiumhi.mg.gov.br/a/?post_type=licitacoes&#038;p=25811,0,licitacoes,,0,raw,https://transparencia.prefeiturapiumhi.mg.gov.br/licitacoes/licitanet-termo-de-adjudicacao-n-07-2021/,,25812,"TERMOS DE ADJUDICAÇÃO",,,,
25814,2,"2021-03-24 10:44:13","2021-03-24 13:44:13",,"LICITANET - TERMO DE ADJUDICAÇÃO N°06 2021",,publish,closed,closed,,licitanet-termo-de-adjudicacao-n06-2021,,,"2021-03-24 10:44:13","2021-03-24 13:44:13",,0,https://transparencia.prefeiturapiumhi.mg.gov.br/a/?post_type=licitacoes&#038;p=25814,0,licitacoes,,0,raw,https://transparencia.prefeiturapiumhi.mg.gov.br/licitacoes/licitanet-termo-de-adjudicacao-n06-2021/,,25815,"TERMOS DE ADJUDICAÇÃO",,,,
25816,2,"2021-03-24 10:44:56","2021-03-24 13:44:56",,"LICITANET - TERMO DE ADJUDICAÇÃO N°08 2021",,publish,closed,closed,,licitanet-termo-de-adjudicacao-n08-2021,,,"2021-03-24 10:44:56","2021-03-24 13:44:56",,0,https://transparencia.prefeiturapiumhi.mg.gov.br/a/?post_type=licitacoes&#038;p=25816,0,licitacoes,,0,raw,https://transparencia.prefeiturapiumhi.mg.gov.br/licitacoes/licitanet-termo-de-adjudicacao-n08-2021/,,25818,"TERMOS DE ADJUDICAÇÃO",,,,
25821,2,"2021-03-24 10:45:30","2021-03-24 13:45:30",,"LICITANET - TERMO DE ADJUDICAÇÃO Nº13 2021",,publish,closed,closed,,licitanet-termo-de-adjudicacao-no13-2021,,,"2021-03-24 10:45:30","2021-03-24 13:45:30",,0,https://transparencia.prefeiturapiumhi.mg.gov.br/a/?post_type=licitacoes&#038;p=25821,0,licitacoes,,0,raw,https://transparencia.prefeiturapiumhi.mg.gov.br/licitacoes/licitanet-termo-de-adjudicacao-no13-2021/,,25823,"TERMOS DE ADJUDICAÇÃO",,,,
25826,2,"2021-03-24 10:46:15","2021-03-24 13:46:15",,"LICITANET - TERMO DE ADJUDICAÇÃO Processo 06",,publish,closed,closed,,licitanet-termo-de-adjudicacao-processo-06,,,"2021-03-24 10:46:15","2021-03-24 13:46:15",,0,https://transparencia.prefeiturapiumhi.mg.gov.br/a/?post_type=licitacoes&#038;p=25826,0,licitacoes,,0,raw,https://transparencia.prefeiturapiumhi.mg.gov.br/licitacoes/licitanet-termo-de-adjudicacao-processo-06/,,25828,"TERMOS DE ADJUDICAÇÃO",,,,
25829,2,"2021-03-24 10:46:47","2021-03-24 13:46:47",,"LICITANET - TERMO DE ADJUDICAÇÃO Processo 14",,publish,closed,closed,,licitanet-termo-de-adjudicacao-processo-14,,,"2021-03-24 10:46:47","2021-03-24 13:46:47",,0,https://transparencia.prefeiturapiumhi.mg.gov.br/a/?post_type=licitacoes&#038;p=25829,0,licitacoes,,0,raw,https://transparencia.prefeiturapiumhi.mg.gov.br/licitacoes/licitanet-termo-de-adjudicacao-processo-14/,,25830,"TERMOS DE ADJUDICAÇÃO",,,,
25831,2,"2021-03-24 10:47:17","2021-03-24 13:47:17",,"LICITANET - TERMO DE ADJUDICAÇÃO Processo 17",,publish,closed,closed,,licitanet-termo-de-adjudicacao-processo-17,,,"2021-03-24 10:47:17","2021-03-24 13:47:17",,0,https://transparencia.prefeiturapiumhi.mg.gov.br/a/?post_type=licitacoes&#038;p=25831,0,licitacoes,,0,raw,https://transparencia.prefeiturapiumhi.mg.gov.br/licitacoes/licitanet-termo-de-adjudicacao-processo-17/,,25832,"TERMOS DE ADJUDICAÇÃO",,,,
25834,2,"2021-03-24 10:47:56","2021-03-24 13:47:56",,"LICITANET - TERMO DE ADJUDICAÇÃO",,publish,closed,closed,,licitanet-termo-de-adjudicacao,,,"2021-03-24 10:47:56","2021-03-24 13:47:56",,0,https://transparencia.prefeiturapiumhi.mg.gov.br/a/?post_type=licitacoes&#038;p=25834,0,licitacoes,,0,raw,https://transparencia.prefeiturapiumhi.mg.gov.br/licitacoes/licitanet-termo-de-adjudicacao/,,25835,"TERMOS DE ADJUDICAÇÃO",,,,
25836,2,"2021-03-24 10:48:38","2021-03-24 13:48:38",,"Termo Adjudicação e Homologação P 20 2021  - Construção sede Secretaria Educação",,publish,closed,closed,,termo-adjudicacao-e-homologacao-p-20-2021-construcao-sede-secretaria-educacao,,,"2021-03-24 10:48:38","2021-03-24 13:48:38",,0,https://transparencia.prefeiturapiumhi.mg.gov.br/a/?post_type=licitacoes&#038;p=25836,0,licitacoes,,0,raw,https://transparencia.prefeiturapiumhi.mg.gov.br/licitacoes/termo-adjudicacao-e-homologacao-p-20-2021-construcao-sede-secretaria-educacao/,,25837,"TERMOS DE ADJUDICAÇÃO",,,,
25838,2,"2021-03-24 10:49:13","2021-03-24 13:49:13",,"TERMO DE ADJUDICAÇÃO - PREGÃO ELETRÔNICO Nº02 2021",,publish,closed,closed,,termo-de-adjudicacao-pregao-eletronico-no02-2021,,,"2021-03-24 10:49:13","2021-03-24 13:49:13",,0,https://transparencia.prefeiturapiumhi.mg.gov.br/a/?post_type=licitacoes&#038;p=25838,0,licitacoes,,0,raw,https://transparencia.prefeiturapiumhi.mg.gov.br/licitacoes/termo-de-adjudicacao-pregao-eletronico-no02-2021/,,25839,"TERMOS DE ADJUDICAÇÃO",,,,
25845,2,"2021-03-24 10:49:46","2021-03-24 13:49:46",,"Termo de Adjudicação e Homologação P n°02- 2021 Aquisição brita,areia,pedracalcária,etc",,publish,closed,closed,,termo-de-adjudicacao-e-homologacao-p-n02-2021-aquisicao-britaareiapedracalcariaetc,,,"2021-03-24 10:49:46","2021-03-24 13:49:46",,0,https://transparencia.prefeiturapiumhi.mg.gov.br/a/?post_type=licitacoes&#038;p=25845,0,licitacoes,,0,raw,https://transparencia.prefeiturapiumhi.mg.gov.br/licitacoes/termo-de-adjudicacao-e-homologacao-p-n02-2021-aquisicao-britaareiapedracalcariaetc/,,25847,"TERMOS DE ADJUDICAÇÃO",,,,
25849,2,"2021-03-24 10:50:27","2021-03-24 13:50:27",,"Termo de Adjudicação e Homologação P n°15 2021 Contratação Oficineiros- assinado",,publish,closed,closed,,termo-de-adjudicacao-e-homologacao-p-n15-2021-contratacao-oficineiros-assinado,,,"2021-03-24 10:50:27","2021-03-24 13:50:27",,0,https://transparencia.prefeiturapiumhi.mg.gov.br/a/?post_type=licitacoes&#038;p=25849,0,licitacoes,,0,raw,https://transparencia.prefeiturapiumhi.mg.gov.br/licitacoes/termo-de-adjudicacao-e-homologacao-p-n15-2021-contratacao-oficineiros-assinado/,,25851,"TERMOS DE ADJUDICAÇÃO",,,,
25852,2,"2021-03-24 10:51:04","2021-03-24 13:51:04",,"TERMO DE ADJUDICAÇÃOC- PREGÃO ELETRONICO Nº01 2021",,publish,closed,closed,,termo-de-adjudicacaoc-pregao-eletronico-no01-2021,,,"2021-03-24 10:51:04","2021-03-24 13:51:04",,0,https://transparencia.prefeiturapiumhi.mg.gov.br/a/?post_type=licitacoes&#038;p=25852,0,licitacoes,,0,raw,https://transparencia.prefeiturapiumhi.mg.gov.br/licitacoes/termo-de-adjudicacaoc-pregao-eletronico-no01-2021/,,25853,"TERMOS DE ADJUDICAÇÃO",,,,
25854,2,"2021-03-24 10:52:59","2021-03-24 13:52:59",,"ATA- 01-2021 - MATERIAL MÉDICO AMBULATORIAL",,publish,closed,closed,,ata-01-2021-material-medico-ambulatorial,,,"2021-03-24 10:52:59","2021-03-24 13:52:59",,0,https://transparencia.prefeiturapiumhi.mg.gov.br/a/?post_type=licitacoes&#038;p=25854,0,licitacoes,,0,raw,https://transparencia.prefeiturapiumhi.mg.gov.br/licitacoes/ata-01-2021-material-medico-ambulatorial/,,25857,ATAS,,,,
25859,2,"2021-03-24 10:53:30","2021-03-24 13:53:30",,"ATA- 02-2021 - MEDICAMENTOS JUDICIAIS -BH FARMA  COMÉRCIO LTDA .PDF ASSINADO",,publish,closed,closed,,ata-02-2021-medicamentos-judiciais-bh-farma-comercio-ltda-pdf-assinado,,,"2021-03-24 10:53:30","2021-03-24 13:53:30",,0,https://transparencia.prefeiturapiumhi.mg.gov.br/a/?post_type=licitacoes&#038;p=25859,0,licitacoes,,0,raw,https://transparencia.prefeiturapiumhi.mg.gov.br/licitacoes/ata-02-2021-medicamentos-judiciais-bh-farma-comercio-ltda-pdf-assinado/,,25861,ATAS,,,,
25863,2,"2021-03-24 10:54:00","2021-03-24 13:54:00",,"ATA -03-2021 - MEDICAMENTOS JUDICIAIS -CRISTALIA PRODUTOS QUIMICOS FARMACEUTICOS LTDA- ASSINADO",,publish,closed,closed,,ata-03-2021-medicamentos-judiciais-cristalia-produtos-quimicos-farmaceuticos-ltda-assinado,,,"2021-03-24 10:54:00","2021-03-24 13:54:00",,0,https://transparencia.prefeiturapiumhi.mg.gov.br/a/?post_type=licitacoes&#038;p=25863,0,licitacoes,,0,raw,https://transparencia.prefeiturapiumhi.mg.gov.br/licitacoes/ata-03-2021-medicamentos-judiciais-cristalia-produtos-quimicos-farmaceuticos-ltda-assinado/,,25865,ATAS,,,,
25866,2,"2021-03-24 10:54:36","2021-03-24 13:54:36",,"ATA -04-2021 - MEDICAMENTOS JUDICIAIS - ALESSANDRO REZENDE SANTOS & CIA LTDA - EPP-ASSINADO",,publish,closed,closed,,ata-04-2021-medicamentos-judiciais-alessandro-rezende-santos-cia-ltda-epp-assinado,,,"2021-03-24 10:54:36","2021-03-24 13:54:36",,0,https://transparencia.prefeiturapiumhi.mg.gov.br/a/?post_type=licitacoes&#038;p=25866,0,licitacoes,,0,raw,https://transparencia.prefeiturapiumhi.mg.gov.br/licitacoes/ata-04-2021-medicamentos-judiciais-alessandro-rezende-santos-cia-ltda-epp-assinado/,,25867,ATAS,,,,
25868,2,"2021-03-24 10:55:07","2021-03-24 13:55:07",,"ATA -05-2021 - MEDICAMENTOS JUDICIAIS -DROGARIA COELHO & CIA LTDA - EPP.PDF ASSINADO",,publish,closed,closed,,ata-05-2021-medicamentos-judiciais-drogaria-coelho-cia-ltda-epp-pdf-assinado,,,"2021-03-24 10:55:07","2021-03-24 13:55:07",,0,https://transparencia.prefeiturapiumhi.mg.gov.br/a/?post_type=licitacoes&#038;p=25868,0,licitacoes,,0,raw,https://transparencia.prefeiturapiumhi.mg.gov.br/licitacoes/ata-05-2021-medicamentos-judiciais-drogaria-coelho-cia-ltda-epp-pdf-assinado/,,25869,ATAS,,,,
25871,2,"2021-03-24 10:56:41","2021-03-24 13:56:41",,"ATA- 06-2021 - MEDICAMENTOS JUDICIAIS - ACACIA COMERCIO DE MEDICAMENTOS EIRELI.PDF ASSINADO",,publish,closed,closed,,ata-06-2021-medicamentos-judiciais-acacia-comercio-de-medicamentos-eireli-pdf-assinado,,,"2021-03-24 10:56:41","2021-03-24 13:56:41",,0,https://transparencia.prefeiturapiumhi.mg.gov.br/a/?post_type=licitacoes&#038;p=25871,0,licitacoes,,0,raw,https://transparencia.prefeiturapiumhi.mg.gov.br/licitacoes/ata-06-2021-medicamentos-judiciais-acacia-comercio-de-medicamentos-eireli-pdf-assinado/,,25873,ATAS,,,,
25874,2,"2021-03-24 10:57:10","2021-03-24 13:57:10",,"ATA- 07-2021 - MEDICAMENTOS JUDICIAIS -BIOHOSP PRODUTOS HOSPITALARES LTDA ASSINADO",,publish,closed,closed,,ata-07-2021-medicamentos-judiciais-biohosp-produtos-hospitalares-ltda-assinado,,,"2021-03-24 10:57:10","2021-03-24 13:57:10",,0,https://transparencia.prefeiturapiumhi.mg.gov.br/a/?post_type=licitacoes&#038;p=25874,0,licitacoes,,0,raw,https://transparencia.prefeiturapiumhi.mg.gov.br/licitacoes/ata-07-2021-medicamentos-judiciais-biohosp-produtos-hospitalares-ltda-assinado/,,25876,ATAS,,,,
25879,2,"2021-03-24 10:57:51","2021-03-24 13:57:51",,"ATA- 08-2021 - MEDICAMENTOS JUDICIAIS -DUPATRI HOSPITALAR COMÉRCIO, IMPORTAÇÃO E EXPORTAÇÃO LTDA-ASSINADO",,publish,closed,closed,,ata-08-2021-medicamentos-judiciais-dupatri-hospitalar-comercio-importacao-e-exportacao-ltda-assinado,,,"2021-03-24 10:57:51","2021-03-24 13:57:51",,0,https://transparencia.prefeiturapiumhi.mg.gov.br/a/?post_type=licitacoes&#038;p=25879,0,licitacoes,,0,raw,https://transparencia.prefeiturapiumhi.mg.gov.br/licitacoes/ata-08-2021-medicamentos-judiciais-dupatri-hospitalar-comercio-importacao-e-exportacao-ltda-assinado/,,25881,ATAS,,,,
25884,2,"2021-03-24 10:58:34","2021-03-24 13:58:34",,"ATA- 09 -2021- MEDICAMENTOS BASÍCOS FARMÁCIA PEREIRA GARCIA LTDA",,publish,closed,closed,,ata-09-2021-medicamentos-basicos-farmacia-pereira-garcia-ltda,,,"2021-03-24 10:58:34","2021-03-24 13:58:34",,0,https://transparencia.prefeiturapiumhi.mg.gov.br/a/?post_type=licitacoes&#038;p=25884,0,licitacoes,,0,raw,https://transparencia.prefeiturapiumhi.mg.gov.br/licitacoes/ata-09-2021-medicamentos-basicos-farmacia-pereira-garcia-ltda/,,25886,ATAS,,,,
25889,2,"2021-03-24 10:59:06","2021-03-24 13:59:06",,"ATA -10-2021- AQUISIÇÃO MEDICAMENTOS BASICOS BH FARNA COMÉRCIO LTDA",,publish,closed,closed,,ata-10-2021-aquisicao-medicamentos-basicos-bh-farna-comercio-ltda,,,"2021-03-24 10:59:06","2021-03-24 13:59:06",,0,https://transparencia.prefeiturapiumhi.mg.gov.br/a/?post_type=licitacoes&#038;p=25889,0,licitacoes,,0,raw,https://transparencia.prefeiturapiumhi.mg.gov.br/licitacoes/ata-10-2021-aquisicao-medicamentos-basicos-bh-farna-comercio-ltda/,,25891,ATAS,,,,
25892,2,"2021-03-24 10:59:35","2021-03-24 13:59:35",,"ATA -11-2021 AQUISIÇÃO MEDICAMENTOS BASICOS MED CENTER COMÉRCIO LTDA",,publish,closed,closed,,ata-11-2021-aquisicao-medicamentos-basicos-med-center-comercio-ltda,,,"2021-03-24 10:59:35","2021-03-24 13:59:35",,0,https://transparencia.prefeiturapiumhi.mg.gov.br/a/?post_type=licitacoes&#038;p=25892,0,licitacoes,,0,raw,https://transparencia.prefeiturapiumhi.mg.gov.br/licitacoes/ata-11-2021-aquisicao-medicamentos-basicos-med-center-comercio-ltda/,,25893,ATAS,,,,
25894,2,"2021-03-24 11:00:04","2021-03-24 14:00:04",,"ATA -12-2021 AQUISIÇÃO MEDICAMENTOS BASICOS CRISTALIA PRODUTOS QUÍMICOS  FARMACÊUTICOS LTDA",,publish,closed,closed,,ata-12-2021-aquisicao-medicamentos-basicos-cristalia-produtos-quimicos-farmaceuticos-ltda,,,"2021-03-24 11:00:04","2021-03-24 14:00:04",,0,https://transparencia.prefeiturapiumhi.mg.gov.br/a/?post_type=licitacoes&#038;p=25894,0,licitacoes,,0,raw,https://transparencia.prefeiturapiumhi.mg.gov.br/licitacoes/ata-12-2021-aquisicao-medicamentos-basicos-cristalia-produtos-quimicos-farmaceuticos-ltda/,,25895,ATAS,,,,
25896,2,"2021-03-24 11:00:35","2021-03-24 14:00:35",,"ATA- 13-2021- AQUISIÇÃO MEDICAMENTOS BASICOS ALESSANDRO REZENDE SANTOS E CIA LTDA-EPP ASSINADO",,publish,closed,closed,,ata-13-2021-aquisicao-medicamentos-basicos-alessandro-rezende-santos-e-cia-ltda-epp-assinado,,,"2021-03-24 11:00:35","2021-03-24 14:00:35",,0,https://transparencia.prefeiturapiumhi.mg.gov.br/a/?post_type=licitacoes&#038;p=25896,0,licitacoes,,0,raw,https://transparencia.prefeiturapiumhi.mg.gov.br/licitacoes/ata-13-2021-aquisicao-medicamentos-basicos-alessandro-rezende-santos-e-cia-ltda-epp-assinado/,,25897,ATAS,,,,
25898,2,"2021-03-24 11:01:05","2021-03-24 14:01:05",,"ATA- 14-2021- AQUISIÇÃO MEDICAMENTOS BASICOS DROGARIA COELHO E CIA ÇTDA-EPP",,publish,closed,closed,,ata-14-2021-aquisicao-medicamentos-basicos-drogaria-coelho-e-cia-ctda-epp,,,"2021-03-24 11:01:05","2021-03-24 14:01:05",,0,https://transparencia.prefeiturapiumhi.mg.gov.br/a/?post_type=licitacoes&#038;p=25898,0,licitacoes,,0,raw,https://transparencia.prefeiturapiumhi.mg.gov.br/licitacoes/ata-14-2021-aquisicao-medicamentos-basicos-drogaria-coelho-e-cia-ctda-epp/,,25899,ATAS,,,,
25900,2,"2021-03-24 11:01:33","2021-03-24 14:01:33",,"ATA -15-2021- AQUISIÇÃO MEDICAMENTOS BASICOS CENTERMEDI COMÉRCIO DE MEDICAMENTOS EIRELI",,publish,closed,closed,,ata-15-2021-aquisicao-medicamentos-basicos-centermedi-comercio-de-medicamentos-eireli,,,"2021-03-24 11:01:33","2021-03-24 14:01:33",,0,https://transparencia.prefeiturapiumhi.mg.gov.br/a/?post_type=licitacoes&#038;p=25900,0,licitacoes,,0,raw,https://transparencia.prefeiturapiumhi.mg.gov.br/licitacoes/ata-15-2021-aquisicao-medicamentos-basicos-centermedi-comercio-de-medicamentos-eireli/,,25901,ATAS,,,,
25924,2,"2021-03-24 11:10:00","2021-03-24 14:10:00",,"ATA-16-2021- AQUISIÇÃO MEDICAMENTOS BASICOS ACÁCIA  COMERCIO DE MEDICAMENTOS EIRELI",,publish,closed,closed,,ata-16-2021-aquisicao-medicamentos-basicos-acacia-comercio-de-medicamentos-eireli,,,"2021-03-24 11:10:00","2021-03-24 14:10:00",,0,https://transparencia.prefeiturapiumhi.mg.gov.br/a/?post_type=licitacoes&#038;p=25924,0,licitacoes,,0,raw,https://transparencia.prefeiturapiumhi.mg.gov.br/licitacoes/ata-16-2021-aquisicao-medicamentos-basicos-acacia-comercio-de-medicamentos-eireli/,,25926,ATAS,,,,
25943,2,"2021-03-24 11:14:19","2021-03-24 14:14:19",,"ATA-17-2021- AQUISIÇÃO MEDICAMENTOS BASICOS -COMERCIAL CIRÚRGICA RIOCLARENSE LTDA ASSINADO",,publish,closed,closed,,ata-17-2021-aquisicao-medicamentos-basicos-comercial-cirurgica-rioclarense-ltda-assinado,,,"2021-03-24 11:14:19","2021-03-24 14:14:19",,0,https://transparencia.prefeiturapiumhi.mg.gov.br/a/?post_type=licitacoes&#038;p=25943,0,licitacoes,,0,raw,https://transparencia.prefeiturapiumhi.mg.gov.br/licitacoes/ata-17-2021-aquisicao-medicamentos-basicos-comercial-cirurgica-rioclarense-ltda-assinado/,,25945,ATAS,,,,
25947,2,"2021-03-24 11:14:52","2021-03-24 14:14:52",,"ATA-18-2021- AQUISIÇÃO MEDICAMENTOS BASICOS BIOHOSP PRODUTOS HOSPITALARES LTDA",,publish,closed,closed,,ata-18-2021-aquisicao-medicamentos-basicos-biohosp-produtos-hospitalares-ltda,,,"2021-03-24 11:14:52","2021-03-24 14:14:52",,0,https://transparencia.prefeiturapiumhi.mg.gov.br/a/?post_type=licitacoes&#038;p=25947,0,licitacoes,,0,raw,https://transparencia.prefeiturapiumhi.mg.gov.br/licitacoes/ata-18-2021-aquisicao-medicamentos-basicos-biohosp-produtos-hospitalares-ltda/,,25949,ATAS,,,,
25959,2,"2021-03-24 11:17:01","2021-03-24 14:17:01",,"ATA-19- 2021 -AQUISIÇÃO MEDICAMENTOS BASICOS PROMEFARMA REPRESENTAÇÕES LTDA",,publish,closed,closed,,ata-19-2021-aquisicao-medicamentos-basicos-promefarma-representacoes-ltda,,,"2021-03-24 11:17:01","2021-03-24 14:17:01",,0,https://transparencia.prefeiturapiumhi.mg.gov.br/a/?post_type=licitacoes&#038;p=25959,0,licitacoes,,0,raw,https://transparencia.prefeiturapiumhi.mg.gov.br/licitacoes/ata-19-2021-aquisicao-medicamentos-basicos-promefarma-representacoes-ltda/,,25961,ATAS,,,,
25964,2,"2021-03-24 11:17:36","2021-03-24 14:17:36",,"ATA-20-2021 -AQUISIÇÃO MEDICAMENTOS BASICOS COSTA CAMARGOS COMÉRCIO DE PRODUTOS HOSPITALARES LTDA",,publish,closed,closed,,ata-20-2021-aquisicao-medicamentos-basicos-costa-camargos-comercio-de-produtos-hospitalares-ltda,,,"2021-03-24 11:17:36","2021-03-24 14:17:36",,0,https://transparencia.prefeiturapiumhi.mg.gov.br/a/?post_type=licitacoes&#038;p=25964,0,licitacoes,,0,raw,https://transparencia.prefeiturapiumhi.mg.gov.br/licitacoes/ata-20-2021-aquisicao-medicamentos-basicos-costa-camargos-comercio-de-produtos-hospitalares-ltda/,,25965,ATAS,,,,
25968,2,"2021-03-24 11:18:13","2021-03-24 14:18:13",,"ATA-21-2021- AQUISIÇÃO MEDICAMENTOS BASICOS SOMAMG PRODUTOS HOSPITALARES LTDA",,publish,closed,closed,,ata-21-2021-aquisicao-medicamentos-basicos-somamg-produtos-hospitalares-ltda,,,"2021-03-24 11:18:13","2021-03-24 14:18:13",,0,https://transparencia.prefeiturapiumhi.mg.gov.br/a/?post_type=licitacoes&#038;p=25968,0,licitacoes,,0,raw,https://transparencia.prefeiturapiumhi.mg.gov.br/licitacoes/ata-21-2021-aquisicao-medicamentos-basicos-somamg-produtos-hospitalares-ltda/,,25970,ATAS,,,,
25972,2,"2021-03-24 11:18:48","2021-03-24 14:18:48",,"ATA-22-2021-AQUISIÇÃO MEDICAMENTOS BASICOS INOVAMED COMÉRCIO DE MEDICAMENTOS LTDA ASSINADO",,publish,closed,closed,,ata-22-2021-aquisicao-medicamentos-basicos-inovamed-comercio-de-medicamentos-ltda-assinado,,,"2021-03-24 11:18:48","2021-03-24 14:18:48",,0,https://transparencia.prefeiturapiumhi.mg.gov.br/a/?post_type=licitacoes&#038;p=25972,0,licitacoes,,0,raw,https://transparencia.prefeiturapiumhi.mg.gov.br/licitacoes/ata-22-2021-aquisicao-medicamentos-basicos-inovamed-comercio-de-medicamentos-ltda-assinado/,,25973,ATAS,,,,
25975,2,"2021-03-24 11:19:23","2021-03-24 14:19:23",,"ATA-23-2021- AQUISIÇÃO MEDICAMENTOS BASICOS DISTRIMIX DISTRIBUIDORA DE MEDICAMENTOS LTDA",,publish,closed,closed,,ata-23-2021-aquisicao-medicamentos-basicos-distrimix-distribuidora-de-medicamentos-ltda,,,"2021-03-24 11:19:23","2021-03-24 14:19:23",,0,https://transparencia.prefeiturapiumhi.mg.gov.br/a/?post_type=licitacoes&#038;p=25975,0,licitacoes,,0,raw,https://transparencia.prefeiturapiumhi.mg.gov.br/licitacoes/ata-23-2021-aquisicao-medicamentos-basicos-distrimix-distribuidora-de-medicamentos-ltda/,,25977,ATAS,,,,
25980,2,"2021-03-24 11:19:58","2021-03-24 14:19:58",,"ATA-24-2021- AQUISIÇÃO MEDICAMENTOS BASICOS DUPATRI HOSPITALAR, COMÉRCIO, IMPORTAÇÃO E EXPORTAÇÃO LTDA",,publish,closed,closed,,ata-24-2021-aquisicao-medicamentos-basicos-dupatri-hospitalar-comercio-importacao-e-exportacao-ltda,,,"2021-03-24 11:19:58","2021-03-24 14:19:58",,0,https://transparencia.prefeiturapiumhi.mg.gov.br/a/?post_type=licitacoes&#038;p=25980,0,licitacoes,,0,raw,https://transparencia.prefeiturapiumhi.mg.gov.br/licitacoes/ata-24-2021-aquisicao-medicamentos-basicos-dupatri-hospitalar-comercio-importacao-e-exportacao-ltda/,,25982,ATAS,,,,
25984,2,"2021-03-24 11:20:30","2021-03-24 14:20:30",,"ATA-25-2021- AQUISIÇÃO MEDICAMENTOS BASICOS W. ARAÚJO  DISTRIBUIDORA DE MEDICAMENTOS-EIRELI",,publish,closed,closed,,ata-25-2021-aquisicao-medicamentos-basicos-w-araujo-distribuidora-de-medicamentos-eireli,,,"2021-03-24 11:20:30","2021-03-24 14:20:30",,0,https://transparencia.prefeiturapiumhi.mg.gov.br/a/?post_type=licitacoes&#038;p=25984,0,licitacoes,,0,raw,https://transparencia.prefeiturapiumhi.mg.gov.br/licitacoes/ata-25-2021-aquisicao-medicamentos-basicos-w-araujo-distribuidora-de-medicamentos-eireli/,,25986,ATAS,,,,
25988,2,"2021-03-24 11:21:27","2021-03-24 14:21:27",,"ATA-26-2021-AQUISIÇÃO MEDICAMENTOS BASICOS GOLDENPLUS – COMÉRCIO DE MEDICAMENTOS E PRODUTOS HOSP. LTDA",,publish,closed,closed,,ata-26-2021-aquisicao-medicamentos-basicos-goldenplus-comercio-de-medicamentos-e-produtos-hosp-ltda,,,"2021-03-24 11:21:27","2021-03-24 14:21:27",,0,https://transparencia.prefeiturapiumhi.mg.gov.br/a/?post_type=licitacoes&#038;p=25988,0,licitacoes,,0,raw,https://transparencia.prefeiturapiumhi.mg.gov.br/licitacoes/ata-26-2021-aquisicao-medicamentos-basicos-goldenplus-comercio-de-medicamentos-e-produtos-hosp-ltda/,,25990,ATAS,,,,
25994,2,"2021-03-24 11:21:59","2021-03-24 14:21:59",,"ATA-27-2021- AQUISIÇÃO MEDICAMENTOS BASICOS LIGIA MARIA CARNEIRO",,publish,closed,closed,,ata-27-2021-aquisicao-medicamentos-basicos-ligia-maria-carneiro,,,"2021-03-24 11:21:59","2021-03-24 14:21:59",,0,https://transparencia.prefeiturapiumhi.mg.gov.br/a/?post_type=licitacoes&#038;p=25994,0,licitacoes,,0,raw,https://transparencia.prefeiturapiumhi.mg.gov.br/licitacoes/ata-27-2021-aquisicao-medicamentos-basicos-ligia-maria-carneiro/,,25997,ATAS,,,,
26020,2,"2021-03-24 11:27:38","2021-03-24 14:27:38",,"ATA-28-2021- AQUISIÇÃO MEDICAMENTOS BASICOS ESTRATTI VEGETALI FARMÁCIA E MANIPULAÇÃO-  EIRELI",,publish,closed,closed,,ata-28-2021-aquisicao-medicamentos-basicos-estratti-vegetali-farmacia-e-manipulacao-eireli,,,"2021-03-24 11:27:38","2021-03-24 14:27:38",,0,https://transparencia.prefeiturapiumhi.mg.gov.br/a/?post_type=licitacoes&#038;p=26020,0,licitacoes,,0,raw,https://transparencia.prefeiturapiumhi.mg.gov.br/licitacoes/ata-28-2021-aquisicao-medicamentos-basicos-estratti-vegetali-farmacia-e-manipulacao-eireli/,,26022,ATAS,,,,
26024,2,"2021-03-24 11:28:13","2021-03-24 14:28:13",,"ATA-29-2021-AQUISIÇÃO MEDICAMENTOS BASICOS DISTRIBUIDORA DE MEDICAMENTOS BACKES - EIRELI",,publish,closed,closed,,ata-29-2021-aquisicao-medicamentos-basicos-distribuidora-de-medicamentos-backes-eireli,,,"2021-03-24 11:28:13","2021-03-24 14:28:13",,0,https://transparencia.prefeiturapiumhi.mg.gov.br/a/?post_type=licitacoes&#038;p=26024,0,licitacoes,,0,raw,https://transparencia.prefeiturapiumhi.mg.gov.br/licitacoes/ata-29-2021-aquisicao-medicamentos-basicos-distribuidora-de-medicamentos-backes-eireli/,,26025,ATAS,,,,